Date String (YYYY-MM-DD hh:mm:ss) UTC,Instrument flags,Ambient pressure (hPa),Sample flow (lpm),Bypass flow (lpm),Sample temperature (°C),Ambient temperature (°C),ASC tube jacket temperature (°C),LED temperature (°C),Box temperature (°C),Sample RH (%),Span deviation,Mass concentration (μg/m³),Mass concentration (μg/m³),Mass concentration (μg/m³)
DateTimeUTC,F1_M11,P_M11,Q1_M11,Q2_M11,T1_M11,T2_M11,T3_M11,T4_M11,T5_M11,U1_M11,ZSPAN_M11,X0_M11,X2_M11,X1_M11
2023-04-24 17:00:00,,0825.7,5.00,0.00,22.8,21.6,00.0,31.1,24.5,16.8,0002.7,0017.01,0009.71,0008.65
2023-04-24 17:01:00,,0825.6,4.99,0.00,22.8,21.6,00.0,31.1,24.5,17.0,0003.5,0016.99,0009.69,0008.66
2023-04-24 17:02:00,,0825.6,5.00,0.00,22.9,21.6,00.0,31.1,24.5,16.4,0003.8,0016.69,0009.70,0008.67
2023-04-24 17:03:00,,0825.6,4.99,0.00,22.9,21.6,00.0,31.1,24.5,16.6,0003.9,0016.57,0009.71,0008.68
2023-04-24 17:04:00,,0825.6,5.00,0.00,22.9,21.7,00.0,31.1,24.6,16.8,0004.2,0016.36,0009.69,0008.67
2023-04-24 17:05:00,,0825.6,5.00,0.00,22.9,21.7,00.0,31.2,24.6,16.9,0004.5,0015.86,0009.71,0008.67
2023-04-24 17:06:00,,0825.6,4.99,0.00,22.9,21.7,00.0,31.2,24.6,16.8,0004.7,0016.18,0009.69,0008.68
2023-04-24 17:07:00,,0825.6,5.00,0.00,22.9,21.7,00.0,31.2,24.6,16.9,0004.4,0016.22,0009.70,0008.70
2023-04-24 17:08:00,,0825.6,4.99,0.00,23.0,21.8,00.0,31.2,24.6,17.1,0004.5,0016.18,0009.71,0008.73
2023-04-24 17:09:00,,0825.6,5.00,0.00,23.0,21.8,00.0,31.2,24.7,16.7,0004.8,0015.88,0009.74,0008.76
2023-04-24 17:10:00,,0825.6,5.00,0.00,23.0,21.8,00.0,31.2,24.6,16.4,0004.3,0015.84,0009.81,0008.77
2023-04-24 17:11:00,,0825.6,5.00,0.00,23.0,21.7,00.0,31.2,24.6,16.4,0004.2,0015.71,0009.83,0008.79
2023-04-24 17:12:00,,0825.6,5.00,0.00,23.0,21.7,00.0,31.2,24.6,16.5,0006.4,0015.72,0009.87,0008.80
2023-04-24 17:13:00,,0825.6,5.00,0.00,23.0,21.7,00.0,31.3,24.7,16.5,0005.6,0015.65,0009.86,0008.81
2023-04-24 17:14:00,,0825.6,5.00,0.00,23.0,21.8,00.0,31.3,24.7,16.0,0004.3,0016.13,0009.85,0008.78
2023-04-24 17:15:00,,0825.5,5.01,0.00,23.1,21.8,00.0,31.3,24.7,15.9,0001.3,0016.16,0009.83,0008.75
2023-04-24 17:16:00,,0825.6,5.00,0.00,23.1,21.9,00.0,31.3,24.8,15.9,-000.4,0016.18,0009.78,0008.72
2023-04-24 17:17:00,,0825.5,4.99,0.00,23.1,21.9,00.0,31.3,24.8,15.4,0000.4,0015.74,0009.74,0008.69
2023-04-24 17:18:00,,0825.5,5.00,0.00,23.1,22.0,00.0,31.3,24.9,15.2,0001.1,0015.60,0009.67,0008.62
2023-04-24 17:19:00,,0825.5,5.01,0.00,23.2,22.0,00.0,31.3,24.9,15.6,0000.6,0015.73,0009.61,0008.53
2023-04-24 17:20:00,,0825.5,5.01,0.00,23.2,22.0,00.0,31.4,24.9,15.7,0002.2,0015.91,0009.57,0008.47
2023-04-24 17:21:00,,0825.4,5.01,0.00,23.2,22.0,00.0,31.4,24.9,15.6,0004.2,0015.53,0009.45,0008.40
2023-04-24 17:22:00,,0825.4,4.99,0.00,23.2,22.1,00.0,31.4,24.9,15.3,0003.9,0014.81,0009.37,0008.34
2023-04-24 17:23:00,,0825.4,5.00,0.00,23.2,22.1,00.0,31.4,24.9,15.5,0002.2,0015.04,0009.25,0008.27
2023-04-24 17:24:00,,0825.4,4.99,0.00,23.2,22.1,00.0,31.4,24.9,15.4,0001.9,0015.87,0009.19,0008.21
2023-04-24 17:25:00,,0825.4,5.00,0.00,23.2,22.1,00.0,31.5,24.9,14.9,0002.5,0015.90,0009.12,0008.17
2023-04-24 17:26:00,,0825.4,5.01,0.00,23.2,22.1,00.0,31.5,24.9,15.0,0004.2,0015.93,0009.10,0008.17
2023-04-24 17:27:00,,0825.4,5.01,0.00,23.3,22.1,00.0,31.5,24.9,15.0,0004.2,0016.44,0009.10,0008.15
2023-04-24 17:28:00,,0825.3,5.00,0.00,23.3,22.0,00.0,31.5,24.9,14.5,0004.1,0016.55,0009.01,0008.09
2023-04-24 17:29:00,,0825.3,5.01,0.00,23.3,22.0,00.0,31.5,24.9,14.4,0004.1,0016.59,0009.00,0008.04
2023-04-24 17:30:00,,0825.3,4.99,0.00,23.3,22.1,00.0,31.5,24.9,14.6,0004.0,0016.56,0008.94,0008.01
2023-04-24 17:31:00,,0825.3,4.99,0.00,23.3,22.1,00.0,31.5,25.0,14.9,0002.9,0016.40,0008.81,0007.94
2023-04-24 17:32:00,,0825.3,5.01,0.00,23.3,22.1,00.0,31.6,25.0,14.5,0001.8,0016.45,0008.74,0007.89
2023-04-24 17:33:00,,0825.3,5.00,0.00,23.3,22.1,00.0,31.6,25.0,14.6,0001.5,0016.73,0008.63,0007.82
2023-04-24 17:34:00,,0825.3,5.00,0.00,23.4,22.1,00.0,31.6,25.0,15.0,0002.1,0016.51,0008.55,0007.74
2023-04-24 17:35:00,,0825.2,5.01,0.00,23.4,22.2,00.0,31.6,25.0,14.6,0002.2,0015.60,0008.48,0007.68
2023-04-24 17:36:00,,0825.3,5.00,0.00,23.4,22.2,00.0,31.6,25.1,14.8,0001.5,0014.74,0008.43,0007.65
2023-04-24 17:37:00,,0825.2,4.99,0.00,23.4,22.2,00.0,31.6,25.1,14.6,0000.4,0014.43,0008.35,0007.61
2023-04-24 17:38:00,,0825.2,5.00,0.00,23.4,22.2,00.0,31.7,25.1,14.6,0000.7,0014.04,0008.30,0007.57
2023-04-24 17:39:00,,0825.2,5.00,0.00,23.4,22.2,00.0,31.7,25.1,14.3,0001.8,0014.19,0008.28,0007.56
2023-04-24 17:40:00,,0825.3,5.00,0.00,23.4,22.2,00.0,31.7,25.1,14.3,0001.7,0015.06,0008.25,0007.55
2023-04-24 17:41:00,,0825.2,5.01,0.00,23.5,22.2,00.0,31.7,25.1,14.5,0001.5,0014.97,0008.20,0007.55
2023-04-24 17:42:00,,0825.2,5.01,0.00,23.5,22.3,00.0,31.7,25.1,14.4,0002.4,0014.57,0008.19,0007.55
2023-04-24 17:43:00,,0825.2,5.01,0.00,23.5,22.3,00.0,31.7,25.1,14.5,0002.5,0014.65,0008.23,0007.55
2023-04-24 17:44:00,,0825.2,4.99,0.00,23.5,22.3,00.0,31.7,25.2,14.0,0003.3,0014.14,0008.24,0007.53
2023-04-24 17:45:00,,0825.2,4.99,0.00,23.5,22.3,00.0,31.8,25.2,14.3,0003.3,0014.58,0008.25,0007.51
2023-04-24 17:46:00,,0825.1,4.99,0.00,23.5,22.3,00.0,31.8,25.2,13.9,0003.3,0014.77,0008.24,0007.49
2023-04-24 17:47:00,,0825.1,5.01,0.00,23.5,22.3,00.0,31.8,25.2,14.2,0003.7,0014.61,0008.18,0007.42
2023-04-24 17:48:00,,0825.1,5.00,0.00,23.6,22.3,00.0,31.8,25.2,13.9,0003.9,0014.48,0008.11,0007.35
2023-04-24 17:49:00,,0825.1,5.01,0.00,23.6,22.3,00.0,31.8,25.2,13.8,0004.1,0014.76,0008.00,0007.27
2023-04-24 17:50:00,,0825.1,4.99,0.00,23.6,22.4,00.0,31.8,25.2,14.0,0003.9,0014.56,0007.94,0007.20
2023-04-24 17:51:00,,0825.1,4.99,0.00,23.6,22.4,00.0,31.8,25.3,14.4,0003.7,0013.55,0007.94,0007.17
2023-04-24 17:52:00,,0825.1,5.00,0.00,23.6,22.4,00.0,31.9,25.3,14.3,0003.3,0013.34,0007.90,0007.14
2023-04-24 17:53:00,,0825.0,5.00,0.00,23.6,22.4,00.0,31.9,25.3,14.0,0003.1,0013.71,0007.85,0007.09
2023-04-24 17:54:00,,0825.1,5.00,0.00,23.6,22.4,00.0,31.9,25.3,14.0,0003.2,0013.73,0007.76,0007.03
2023-04-24 17:55:00,,0825.0,5.00,0.00,23.6,22.4,00.0,31.9,25.3,14.4,0002.9,0013.91,0007.73,0007.04
2023-04-24 17:56:00,,0825.0,5.00,0.00,23.7,22.4,00.0,31.9,25.3,14.1,0003.1,0013.58,0007.74,0007.06
2023-04-24 17:57:00,,0825.0,5.01,0.00,23.7,22.4,00.0,31.9,25.3,14.3,0003.2,0013.47,0007.72,0007.06
2023-04-24 17:58:00,,0824.9,5.01,0.00,23.7,22.4,00.0,31.9,25.3,14.7,0003.0,0013.83,0007.79,0007.13
2023-04-24 17:59:00,,0824.9,5.00,0.00,23.7,22.5,00.0,31.9,25.4,14.7,0003.2,0014.13,0007.90,0007.23
